Regional Weather Roundup
Issued by NWS Northern Indiana

Home | Current Version | Previous Version | Graphics & Text | Print | Product List | Glossary On
Versions: 1 2 3 4 5 6 7 8 9 10 11 12 13 14 15 16 17 18 19 20 21 22 23 24 25 26 27 28 29 30 31 32 33 34 35 36 37 38 39 40 41 42 43 44 45 46 47 48 49 50
000
ASUS43 KIWX 292010
RWRIWX

KIWX WEATHER ROUNDUP
NATIONAL WEATHER SERVICE NORTHERN INDIANA
400 PM EDT TUE JUL 29 2014

NOTE: "FAIR" INDICATES FEW OR NO CLOUDS BELOW 12,000 FEET WITH NO
SIGNIFICANT WEATHER AND/OR OBSTRUCTIONS TO VISIBILITY.

* THESE STATIONS ARE NOT UNDER NWS QUALITY CONTROL. THEY ALSO MAY NOT
  REPORT WEATHER SUCH AS PRECIPITATION OR FOG.

INZ001>027-292100-
NORTHERN INDIANA

CITY           SKY/WX    TMP DP  RH WIND       PRES   REMARKS
GARY*          MOSUNNY   77  57  50 VRB7      30.03S
VALPARAISO     SUNNY     76  54  46 N8        30.03S
MICHIGAN CITY* SUNNY     72  55  56 NW6       30.04S
LAPORTE*       SUNNY     73  54  50 NW13      30.03S
KNOX*          MOSUNNY   76  54  46 NW8       30.01S
SOUTH BEND     MOSUNNY   75  54  47 NW15      30.03R
ELKHART*       PTSUNNY   75  54  46 NW12G17   30.02
GOSHEN         SUNNY     76  57  51 W17       30.00S
MONTICELLO*    MOSUNNY   76  60  57 W13       30.02F
LOGANSPORT*    PTSUNNY   66  59  77 S6        30.04S
ROCHESTER*     MOSUNNY   77  55  47 W9        30.02F
WARSAW*        PTSUNNY   72  57  60 W12       30.01F
ANGOLA*        PTSUNNY   75  57  53 W6        29.99F
FORT WAYNE     MOSUNNY   73  55  53 W10       30.02F
HUNTINGTON*    PTSUNNY   73  55  53 W7        30.01F
PERU/GRISSOM   LGT RAIN  70  64  79 W8        30.04R
MARION*        PTSUNNY   73  54  52 W6        30.04F

$$
INZ028>050-292100-
CENTRAL INDIANA

CITY           SKY/WX    TMP DP  RH WIND       PRES   REMARKS
LAFAYETTE      PTSUNNY   77  57  50 W16G22    30.04S
KOKOMO*        PTSUNNY   73  57  56 W9        30.04S
MUNCIE*        PTSUNNY   72  53  51 W9        30.05S
INDIANAPOLIS   CLOUDY    73  53  49 W9        30.07S

$$
MIZ043>046-050>051-056>058-064>065-071>073-077>080-292100-
SOUTHWEST LOWER MICHIGAN

CITY           SKY/WX    TMP DP  RH WIND       PRES   REMARKS
BATTLE CREEK   MOSUNNY   73  58  59 W7        29.99S
BENTON HARBOR  SUNNY     68  57  68 W10       30.03S
COLDWATER*     LGT RAIN  65  61  86 CALM      30.01R
HILLSDALE*     MOSUNNY   68  57  66 W8        30.01R
HOLLAND        SUNNY     69  59  70 W12       30.02R
GRAND RAPIDS   PTSUNNY   74  55  51 W12G22    29.97F
KALAMAZOO      MOSUNNY   74  55  51 NW13      29.99F
STURGIS*       PTSUNNY   72  59  64 W12       29.99F
THREE RIVERS*  FAIR      76  58  53 W14       30.00S

$$
OHZ001>008-015>018-024>025-292100-
NORTHWEST OHIO

CITY           SKY/WX    TMP DP  RH WIND       PRES   REMARKS
WAUSEON*       FAIR      73  54  49 W10G17    29.99F
DEFIANCE       CLOUDY    71  52  50 SW6       30.01F
FINDLAY        PTSUNNY   73  53  49 W10       30.01S
TOLEDO EXPRESS PTSUNNY   72  51  47 SW12      29.99F
TOLEDO METCALF PTSUNNY   72  51  47 SW13      30.00F
LIMA           PTSUNNY   71  54  54 VRB6      30.03F

$$
&&


USA.gov is the U.S. government's official web portal to all federal, state and local government web resources and services.